Aviation Digital Data Service (ADDS)

Output produced by METARs form (2052 UTC 24 June 2018)
found at http://www.aviationweather.gov/adds/metars/
 
LECO 242030Z 05003KT CAVOK 21/16 Q1015 NOSIG
TAF LECO 242000Z 2421/2521 02006KT 8000 NSC TX25/2515Z TN16/2505Z 
     PROB40 
     TEMPO 2421/2424 3000 BR 
     BECMG 2422/2501 1500 BCFG BKN006 
     TEMPO 2500/2509 0600 BCFG BKN002 
     PROB40 2500/2507 0150 FG VV001 
     BECMG 2509/2511 9000 NSW BKN010
       
LEAB 242000Z 14008KT 110V170 CAVOK 27/15 Q1016 NOSIG
TAF LEAB 242000Z 2421/2506 18008KT CAVOK
       
LERI 241800Z 06012KT 020V090 CAVOK 29/16 Q1014 NOSIG
TAF LERI 241400Z 2415/2424 09009KT CAVOK
       
LEAL 242030Z 07006KT CAVOK 24/21 Q1015 NOSIG
TAF LEAL 241700Z 2418/2518 08010KT 9999 FEW040 TX30/2512Z TN22/2506Z 
     BECMG 2422/2424 VRB04KT 
     BECMG 2508/2510 09010KT
       
LEAM 242030Z 25015KT CAVOK 24/18 Q1014
TAF LEAM 242000Z 2421/2521 23009KT CAVOK TX27/2507Z TN22/2521Z
       
TAF LEGA 241400Z 2415/2424 34003KT CAVOK
       
LEAS 242030Z 10005KT 070V160 CAVOK 18/17 Q1016 NOSIG
TAF LEAS 242000Z 2421/2521 14007KT CAVOK TX24/2515Z TN16/2504Z 
     BECMG 2509/2512 08010KT 
     TEMPO 2511/2518 08015G25KT 
     PROB40 
     TEMPO 2512/2518 SCT035TCU
       
LEMD 242030Z 34003KT CAVOK 30/12 Q1015 NOSIG
TAF LEMD 241700Z 2418/2524 VRB05KT CAVOK TX37/2516Z TN20/2505Z 
     BECMG 2420/2422 04010KT 
     BECMG 2502/2504 VRB05KT 
     PROB40 
     TEMPO 2512/2518 FEW040TCU 
     PROB30 
     TEMPO 2515/2520 26010KT
       
LEBL 242030Z VRB02KT 9999 FEW030 23/17 Q1016 NOSIG
TAF LEBL 241700Z 2418/2518 18006KT 9999 FEW030 TX28/2512Z TN21/2506Z 
     BECMG 2418/2420 VRB04KT 
     TEMPO 2500/2507 33007KT 
     BECMG 2507/2509 09010KT 
     BECMG 2510/2512 15010KT
       
LEBB 242030Z 10005KT CAVOK 22/13 Q1017 NOSIG
TAF LEBB 241700Z 2418/2518 VRB06KT CAVOK TX28/2513Z TN15/2504Z 
     TEMPO 2512/2518 03010KT 
     TEMPO 2512/2518 30010KT
       
LEBG 242030Z AUTO 06003KT 030V090 9999 NCD 20/10 Q1020
TAF LEBG 241700Z 2418/2503 05008KT CAVOK
       
LEBA 242030Z AUTO 24012KT 210V280 9999 NCD 28/18 Q1012
TAF LEBA 241700Z 2418/2503 24006KT CAVOK
       
LEVS 242030Z 36003KT 320V040 CAVOK 31/12 Q1016
TAF LEVS 241700Z 2418/2503 VRB05KT CAVOK 
     BECMG 2420/2422 04010KT
       
GCFV 242030Z 05009KT 9999 FEW028 21/18 Q1018
TAF GCFV 242000Z 2421/2521 35008KT 9999 SCT030 TX26/2514Z TN20/2505Z 
     BECMG 2507/2509 05012KT
       
LEGT 241900Z VRB02KT CAVOK 35/07 Q1014
TAF LEGT 241700Z 2418/2503 VRB05KT CAVOK 
     BECMG 2420/2422 04010KT
       
LEGE 242030Z 00000KT CAVOK 20/13 Q1016
TAF LEGE 241700Z 2418/2518 18010KT 9999 FEW060 TX31/2513Z TN16/2506Z 
     BECMG 2418/2420 VRB03KT 
     TEMPO 2508/2511 04008KT 
     BECMG 2511/2513 18010KT
       
GCLP 242030Z 02013KT CAVOK 21/17 Q1018 NOSIG
TAF GCLP 242000Z 2421/2521 02015KT 9999 FEW025 TX26/2514Z TN19/2505Z 
     PROB30 
     TEMPO 2514/2521 01015G25KT
       
LEGR 242030Z 27008KT CAVOK 29/13 Q1015
TAF LEGR 242000Z 2421/2521 20005KT CAVOK TX35/2515Z TN20/2505Z
       
GCHI 242030Z AUTO 36007KT 330V030 9999 NCD 22/17 Q1018
TAF GCHI 242000Z 2421/2521 34007KT 9999 FEW030 TX25/2514Z TN20/2505Z
       
LEIB 242030Z VRB02KT 9999 FEW015 24/20 Q1016 NOSIG
TAF LEIB 242000Z 2421/2521 08006KT 9999 FEW025 TX29/2512Z TN19/2505Z
       
LEAB 242000Z 14008KT 110V170 CAVOK 27/15 Q1016 NOSIG
TAF LEAB 242000Z 2421/2506 18008KT CAVOK
       
LEAL 242030Z 07006KT CAVOK 24/21 Q1015 NOSIG
TAF LEAL 241700Z 2418/2518 08010KT 9999 FEW040 TX30/2512Z TN22/2506Z 
     BECMG 2422/2424 VRB04KT 
     BECMG 2508/2510 09010KT
       
LEAM 242030Z 25015KT CAVOK 24/18 Q1014
TAF LEAM 242000Z 2421/2521 23009KT CAVOK TX27/2507Z TN22/2521Z
       
TAF LEAO 241700Z 2418/2503 VRB05KT CAVOK
       
LEAS 242030Z 10005KT 070V160 CAVOK 18/17 Q1016 NOSIG
TAF LEAS 242000Z 2421/2521 14007KT CAVOK TX24/2515Z TN16/2504Z 
     BECMG 2509/2512 08010KT 
     TEMPO 2511/2518 08015G25KT 
     PROB40 
     TEMPO 2512/2518 SCT035TCU
       
LEBA 242030Z AUTO 24012KT 210V280 9999 NCD 28/18 Q1012
TAF LEBA 241700Z 2418/2503 24006KT CAVOK
       
LEBB 242030Z 10005KT CAVOK 22/13 Q1017 NOSIG
TAF LEBB 241700Z 2418/2518 VRB06KT CAVOK TX28/2513Z TN15/2504Z 
     TEMPO 2512/2518 03010KT 
     TEMPO 2512/2518 30010KT
       
LEBG 242030Z AUTO 06003KT 030V090 9999 NCD 20/10 Q1020
TAF LEBG 241700Z 2418/2503 05008KT CAVOK
       
LEBL 242030Z VRB02KT 9999 FEW030 23/17 Q1016 NOSIG
TAF LEBL 241700Z 2418/2518 18006KT 9999 FEW030 TX28/2512Z TN21/2506Z 
     BECMG 2418/2420 VRB04KT 
     TEMPO 2500/2507 33007KT 
     BECMG 2507/2509 09010KT 
     BECMG 2510/2512 15010KT
       
LEBR 242030Z AUTO 31007KT 290V350 9999 NCD 26/08 Q1015
LEBT 242030Z AUTO 00000KT 9999 NCD 22/19 Q1017
LEBZ 241900Z 24009KT CAVOK 34/15 Q1012
TAF LEBZ 241700Z 2418/2518 25009KT CAVOK TX33/2418Z TN20/2505Z
       
LECH 242030Z AUTO 19003KT 9000 NCD 22/17 Q1017
LECO 242030Z 05003KT CAVOK 21/16 Q1015 NOSIG
TAF LECO 242000Z 2421/2521 02006KT 8000 NSC TX25/2515Z TN16/2505Z 
     PROB40 
     TEMPO 2421/2424 3000 BR 
     BECMG 2422/2501 1500 BCFG BKN006 
     TEMPO 2500/2509 0600 BCFG BKN002 
     PROB40 2500/2507 0150 FG VV001 
     BECMG 2509/2511 9000 NSW BKN010
       
LECV 241800Z VRB02KT 9999 SCT050 31/13 Q1018
TAF LECV 241700Z 2418/2503 VRB05KT CAVOK 
     BECMG 2420/2422 04010KT
       
LEDA 242030Z AUTO 17007KT 9999 NCD 24/18 Q1015
TAF LEDA 241400Z 2415/2515 21008KT 9999 FEW040 TX35/2514Z TN20/2505Z 
     TEMPO 2417/2420 19014G24KT 
     BECMG 2420/2422 09010KT 
     BECMG 2507/2509 15008KT 
     BECMG 2513/2515 22006KT
       
TAF LEGA 241400Z 2415/2424 34003KT CAVOK
       
LEGE 242030Z 00000KT CAVOK 20/13 Q1016
TAF LEGE 241700Z 2418/2518 18010KT 9999 FEW060 TX31/2513Z TN16/2506Z 
     BECMG 2418/2420 VRB03KT 
     TEMPO 2508/2511 04008KT 
     BECMG 2511/2513 18010KT
       
LEGR 242030Z 27008KT CAVOK 29/13 Q1015
TAF LEGR 242000Z 2421/2521 20005KT CAVOK TX35/2515Z TN20/2505Z
       
LEGT 241900Z VRB02KT CAVOK 35/07 Q1014
TAF LEGT 241700Z 2418/2503 VRB05KT CAVOK 
     BECMG 2420/2422 04010KT
       
LEHC 242030Z AUTO 24006KT 9999 NCD 24/11 Q1016
TAF LEHC 240800Z 2409/2509 VRB04KT 9999 FEW040 TX33/2414Z TN18/2505Z 
     TEMPO 2416/2418 28011KT 
     TEMPO 2420/2502 10012KT 
     PROB40 
     TEMPO 2421/2424 10018G30KT 
     BECMG 2504/2506 VRB03KT
       
LEIB 242030Z VRB02KT 9999 FEW015 24/20 Q1016 NOSIG
TAF LEIB 242000Z 2421/2521 08006KT 9999 FEW025 TX29/2512Z TN19/2505Z
       
LEJR 242030Z 24008KT 9999 OVC020 22/17 Q1015
TAF LEJR 241700Z 2418/2518 24009KT CAVOK TX26/2418Z TN19/2502Z 
     PROB40 
     TEMPO 2500/2508 4000 BR BKN009
       
LELC 242030Z 05013KT 010V080 CAVOK 24/20 Q1014 NOSIG
TAF LELC 241700Z 2418/2518 05009KT CAVOK TX26/2511Z TN21/2502Z 
     PROB40 
     TEMPO 2500/2508 4000 BR BKN009
       
LELL 242030Z AUTO 10003KT 080V140 9999 NCD 22/17 Q1017
TAF LELL 241400Z 2415/2515 13010KT 9999 FEW060 TX30/2514Z TN19/2505Z 
     BECMG 2419/2421 VRB03KT 
     BECMG 2509/2511 14010KT
       
LELN 242030Z AUTO 34004KT 9999 NCD 24/13 Q1018
TAF LELN 241700Z 2418/2503 VRB05KT CAVOK 
     PROB40 
     TEMPO 2420/2503 07010KT
       
LELO 242030Z 08004KT 020V110 CAVOK 27/08 Q1016
TAF LELO 241700Z 2418/2503 VRB05KT CAVOK
       
LEMD 242030Z 34003KT CAVOK 30/12 Q1015 NOSIG
TAF LEMD 241700Z 2418/2524 VRB05KT CAVOK TX37/2516Z TN20/2505Z 
     BECMG 2420/2422 04010KT 
     BECMG 2502/2504 VRB05KT 
     PROB40 
     TEMPO 2512/2518 FEW040TCU 
     PROB30 
     TEMPO 2515/2520 26010KT
       
LEMG 242030Z 09005KT CAVOK 24/16 Q1015 NOSIG
TAF LEMG 241700Z 2418/2518 16005KT CAVOK TX28/2515Z TN19/2504Z 
     PROB40 
     TEMPO 2501/2508 30006KT
       
LEMH 242030Z 02005KT 9999 FEW025 21/15 Q1016
TAF LEMH 242000Z 2421/2521 36006KT 9999 FEW020 TX29/2512Z TN19/2505Z 
     TEMPO 2510/2512 23010KT 
     TEMPO 2512/2516 14007KT
       
LEMO 242000Z 23008KT 210V280 CAVOK 23/18 Q1014 NOSIG
TAF LEMO 242000Z 2421/2506 24009KT CAVOK 
     PROB40 
     TEMPO 2500/2506 4000 BR BKN009
       
LEPA 242030Z 23003KT 9999 FEW040 24/20 Q1016 NOSIG
TAF LEPA 241700Z 2418/2518 22010KT 9999 FEW020 TX30/2512Z TN18/2506Z 
     BECMG 2418/2420 VRB03KT 
     BECMG 2508/2510 22010KT
       
LEPP 242030Z 32007KT CAVOK 21/15 Q1018
TAF LEPP 242000Z 2421/2521 34007KT CAVOK TX30/2514Z TN14/2505Z
       
LERI 241800Z 06012KT 020V090 CAVOK 29/16 Q1014 NOSIG
TAF LERI 241400Z 2415/2424 09009KT CAVOK
       
LERS 242030Z VRB01KT 9999 FEW040 23/18 Q1016
TAF LERS 242000Z 2421/2521 VRB03KT 9999 FEW030 TX30/2512Z TN19/2505Z 
     BECMG 2508/2510 15010KT 
     BECMG 2518/2520 VRB03KT
       
LERT 242000Z 20005KT 7000 BKN024 21/18 Q1015 NOSIG
TAF LERT 242000Z 2421/2506 21009KT CAVOK 
     PROB40 
     TEMPO 2421/2506 4000 BR BKN009
       
LESA 241930Z 06004KT 020V080 9999 FEW045 29/14 Q1016
TAF LESA 241700Z 2418/2518 VRB05KT CAVOK TX31/2516Z TN17/2505Z 
     TEMPO 2513/2518 FEW040TCU 
     PROB40 
     TEMPO 2514/2518 SHRA SCT040TCU 
     PROB30 
     TEMPO 2514/2518 VRB15G25KT 3000 TSRA SCT040CB
       
LESO 242030Z AUTO 20004KT 160V230 9999 NCD 21/17 Q1017
TAF LESO 241700Z 2418/2518 VRB04KT CAVOK TX26/2513Z TN18/2504Z 
     PROB40 
     TEMPO 2511/2517 36010KT
       
LEST 242030Z VRB02KT CAVOK 23/20 Q1016 NOSIG
TAF LEST 241700Z 2418/2518 28010KT CAVOK TX27/2514Z TN16/2505Z 
     BECMG 2418/2420 VRB03KT 
     PROB40 
     TEMPO 2502/2506 3000 BR BKN006 
     BECMG 2511/2514 27012KT
       
LESU 241700Z 19011KT 9999 FEW055TCU FEW060 27/15 Q1016
TAF LESU 241400Z 2415/2515 21010KT 9999 FEW040 TX30/2515Z TN12/2505Z 
     BECMG 2417/2420 VRB04KT 
     BECMG 2510/2512 21010KT
       
LETL 242030Z AUTO 05004KT 020V130 9999 NCD 24/04 Q1020
LETO 242000Z 05007KT CAVOK 32/11 Q1015 NOSIG
TAF LETO 241700Z 2418/2518 VRB05KT CAVOK TX36/2516Z TN19/2505Z 
     BECMG 2420/2422 04010KT 
     BECMG 2502/2504 VRB05KT 
     PROB40 
     TEMPO 2512/2518 FEW040TCU 
     PROB30 
     TEMPO 2515/2518 26010KT
       
LEVC 242030Z 14003KT CAVOK 25/19 Q1016 NOSIG
TAF LEVC 241700Z 2418/2518 09010KT 9999 FEW030 TX30/2513Z TN22/2506Z 
     PROB30 
     TEMPO 2418/2420 FEW030CB SCT035 
     BECMG 2418/2420 VRB03KT 
     BECMG 2510/2512 11010KT
       
LEVD 241930Z 07006KT CAVOK 25/16 Q1017
TAF LEVD 241700Z 2418/2518 VRB05KT CAVOK TX29/2516Z TN15/2505Z 
     BECMG 2419/2421 06012KT 
     BECMG 2507/2509 VRB05KT 
     TEMPO 2514/2518 FEW040TCU 
     PROB30 
     TEMPO 2515/2518 3000 TS SHRA SCT040CB
       
LEVS 242030Z 36003KT 320V040 CAVOK 31/12 Q1016
TAF LEVS 241700Z 2418/2503 VRB05KT CAVOK 
     BECMG 2420/2422 04010KT
       
LEVT 242030Z 00000KT CAVOK 19/13 Q1018
TAF LEVT 241700Z 2418/2518 02010KT CAVOK TX29/2515Z TN13/2504Z 
     BECMG 2419/2422 VRB03KT 
     BECMG 2511/2514 03012KT
       
LEVX 242030Z VRB04KT 0300 R19/P2000 R01/0600N FG VV001 18/17 Q1016 TEMPO 1000 BCFG
TAF AMD LEVX 241838Z 2418/2518 28009KT 3000 BR BKN006 TX23/2514Z TN17/2505Z 
     TEMPO 2418/2510 0800 BCFG BKN002 
     TEMPO 2418/2508 0350 FG BKN001 
     PROB40 
     TEMPO 2500/2507 0150 FG VV001 
     PROB30 
     TEMPO 2503/2506 SHRA SCT035TCU 
     BECMG 2510/2512 8000 NSW 
     PROB30 
     TEMPO 2513/2518 FEW040TCU
       
LEXJ 242030Z 05004KT 010V090 CAVOK 21/16 Q1017
TAF LEXJ 242000Z 2421/2521 11007KT CAVOK TX24/2512Z TN15/2504Z 
     BECMG 2509/2511 05012KT 
     TEMPO 2511/2518 05015G26KT
       
LEZG 242030Z 27006KT CAVOK 27/11 Q1014
TAF LEZG 241700Z 2418/2518 30010KT 9999 FEW050 TX36/2514Z TN17/2506Z 
     TEMPO 2418/2421 VRB04KT 
     TEMPO 2507/2516 VRB04KT
       
LEZL 242030Z 23012KT CAVOK 24/18 Q1014 NOSIG
TAF LEZL 242000Z 2421/2521 21009KT CAVOK TX32/2515Z TN20/2505Z 
     PROB40 
     TEMPO 2500/2508 4000 BR BKN009
       
LEJR 242030Z 24008KT 9999 OVC020 22/17 Q1015
TAF LEJR 241700Z 2418/2518 24009KT CAVOK TX26/2418Z TN19/2502Z 
     PROB40 
     TEMPO 2500/2508 4000 BR BKN009
       
GCGM 242030Z AUTO 24003KT 180V280 9999 BKN015/// 20/16 Q1018 RMK R09/26004KT 220V300 ARP/27004KT 240V320
GCLA 242030Z VRB02KT 9999 FEW030 22/17 Q1018
TAF GCLA 242000Z 2421/2521 33005KT 9999 SCT025 TX24/2514Z TN19/2505Z
       
GCRR 242030Z 34011KT 320V020 9999 FEW030 22/16 Q1018
TAF GCRR 242000Z 2421/2521 01007KT 9999 SCT030 TX26/2514Z TN19/2505Z
       
LELN 242030Z AUTO 34004KT 9999 NCD 24/13 Q1018
TAF LELN 241700Z 2418/2503 VRB05KT CAVOK 
     PROB40 
     TEMPO 2420/2503 07010KT
       
LEMG 242030Z 09005KT CAVOK 24/16 Q1015 NOSIG
TAF LEMG 241700Z 2418/2518 16005KT CAVOK TX28/2515Z TN19/2504Z 
     PROB40 
     TEMPO 2501/2508 30006KT
       
GEML 242030Z AUTO 29007KT 250V320 9999 NCD 22/20 Q1014
TAF GEML 242000Z 2421/2521 30009KT CAVOK TX24/2515Z TN20/2521Z 
     PROB40 
     TEMPO 2500/2510 4000 BR BKN009
       
LEMH 242030Z 02005KT 9999 FEW025 21/15 Q1016
TAF LEMH 242000Z 2421/2521 36006KT 9999 FEW020 TX29/2512Z TN19/2505Z 
     TEMPO 2510/2512 23010KT 
     TEMPO 2512/2516 14007KT
       
LEAB 242000Z 14008KT 110V170 CAVOK 27/15 Q1016 NOSIG
TAF LEAB 242000Z 2421/2506 18008KT CAVOK
       
LEAL 242030Z 07006KT CAVOK 24/21 Q1015 NOSIG
TAF LEAL 241700Z 2418/2518 08010KT 9999 FEW040 TX30/2512Z TN22/2506Z 
     BECMG 2422/2424 VRB04KT 
     BECMG 2508/2510 09010KT
       
LEAM 242030Z 25015KT CAVOK 24/18 Q1014
TAF LEAM 242000Z 2421/2521 23009KT CAVOK TX27/2507Z TN22/2521Z
       
TAF LEAO 241700Z 2418/2503 VRB05KT CAVOK
       
LEAS 242030Z 10005KT 070V160 CAVOK 18/17 Q1016 NOSIG
TAF LEAS 242000Z 2421/2521 14007KT CAVOK TX24/2515Z TN16/2504Z 
     BECMG 2509/2512 08010KT 
     TEMPO 2511/2518 08015G25KT 
     PROB40 
     TEMPO 2512/2518 SCT035TCU
       
LEBA 242030Z AUTO 24012KT 210V280 9999 NCD 28/18 Q1012
TAF LEBA 241700Z 2418/2503 24006KT CAVOK
       
LEBB 242030Z 10005KT CAVOK 22/13 Q1017 NOSIG
TAF LEBB 241700Z 2418/2518 VRB06KT CAVOK TX28/2513Z TN15/2504Z 
     TEMPO 2512/2518 03010KT 
     TEMPO 2512/2518 30010KT
       
LEBG 242030Z AUTO 06003KT 030V090 9999 NCD 20/10 Q1020
TAF LEBG 241700Z 2418/2503 05008KT CAVOK
       
LEBL 242030Z VRB02KT 9999 FEW030 23/17 Q1016 NOSIG
TAF LEBL 241700Z 2418/2518 18006KT 9999 FEW030 TX28/2512Z TN21/2506Z 
     BECMG 2418/2420 VRB04KT 
     TEMPO 2500/2507 33007KT 
     BECMG 2507/2509 09010KT 
     BECMG 2510/2512 15010KT
       
LEBR 242030Z AUTO 31007KT 290V350 9999 NCD 26/08 Q1015
LEBT 242030Z AUTO 00000KT 9999 NCD 22/19 Q1017
LEBZ 241900Z 24009KT CAVOK 34/15 Q1012
TAF LEBZ 241700Z 2418/2518 25009KT CAVOK TX33/2418Z TN20/2505Z
       
LECH 242030Z AUTO 19003KT 9000 NCD 22/17 Q1017
LECO 242030Z 05003KT CAVOK 21/16 Q1015 NOSIG
TAF LECO 242000Z 2421/2521 02006KT 8000 NSC TX25/2515Z TN16/2505Z 
     PROB40 
     TEMPO 2421/2424 3000 BR 
     BECMG 2422/2501 1500 BCFG BKN006 
     TEMPO 2500/2509 0600 BCFG BKN002 
     PROB40 2500/2507 0150 FG VV001 
     BECMG 2509/2511 9000 NSW BKN010
       
LECV 241800Z VRB02KT 9999 SCT050 31/13 Q1018
TAF LECV 241700Z 2418/2503 VRB05KT CAVOK 
     BECMG 2420/2422 04010KT
       
LEDA 242030Z AUTO 17007KT 9999 NCD 24/18 Q1015
TAF LEDA 241400Z 2415/2515 21008KT 9999 FEW040 TX35/2514Z TN20/2505Z 
     TEMPO 2417/2420 19014G24KT 
     BECMG 2420/2422 09010KT 
     BECMG 2507/2509 15008KT 
     BECMG 2513/2515 22006KT
       
TAF LEGA 241400Z 2415/2424 34003KT CAVOK
       
LEGE 242030Z 00000KT CAVOK 20/13 Q1016
TAF LEGE 241700Z 2418/2518 18010KT 9999 FEW060 TX31/2513Z TN16/2506Z 
     BECMG 2418/2420 VRB03KT 
     TEMPO 2508/2511 04008KT 
     BECMG 2511/2513 18010KT
       
LEGR 242030Z 27008KT CAVOK 29/13 Q1015
TAF LEGR 242000Z 2421/2521 20005KT CAVOK TX35/2515Z TN20/2505Z
       
LEGT 241900Z VRB02KT CAVOK 35/07 Q1014
TAF LEGT 241700Z 2418/2503 VRB05KT CAVOK 
     BECMG 2420/2422 04010KT
       
LEHC 242030Z AUTO 24006KT 9999 NCD 24/11 Q1016
TAF LEHC 240800Z 2409/2509 VRB04KT 9999 FEW040 TX33/2414Z TN18/2505Z 
     TEMPO 2416/2418 28011KT 
     TEMPO 2420/2502 10012KT 
     PROB40 
     TEMPO 2421/2424 10018G30KT 
     BECMG 2504/2506 VRB03KT
       
LEIB 242030Z VRB02KT 9999 FEW015 24/20 Q1016 NOSIG
TAF LEIB 242000Z 2421/2521 08006KT 9999 FEW025 TX29/2512Z TN19/2505Z
       
LEJR 242030Z 24008KT 9999 OVC020 22/17 Q1015
TAF LEJR 241700Z 2418/2518 24009KT CAVOK TX26/2418Z TN19/2502Z 
     PROB40 
     TEMPO 2500/2508 4000 BR BKN009
       
LELC 242030Z 05013KT 010V080 CAVOK 24/20 Q1014 NOSIG
TAF LELC 241700Z 2418/2518 05009KT CAVOK TX26/2511Z TN21/2502Z 
     PROB40 
     TEMPO 2500/2508 4000 BR BKN009
       
LELL 242030Z AUTO 10003KT 080V140 9999 NCD 22/17 Q1017
TAF LELL 241400Z 2415/2515 13010KT 9999 FEW060 TX30/2514Z TN19/2505Z 
     BECMG 2419/2421 VRB03KT 
     BECMG 2509/2511 14010KT
       
LELN 242030Z AUTO 34004KT 9999 NCD 24/13 Q1018
TAF LELN 241700Z 2418/2503 VRB05KT CAVOK 
     PROB40 
     TEMPO 2420/2503 07010KT
       
LELO 242030Z 08004KT 020V110 CAVOK 27/08 Q1016
TAF LELO 241700Z 2418/2503 VRB05KT CAVOK
       
LEMD 242030Z 34003KT CAVOK 30/12 Q1015 NOSIG
TAF LEMD 241700Z 2418/2524 VRB05KT CAVOK TX37/2516Z TN20/2505Z 
     BECMG 2420/2422 04010KT 
     BECMG 2502/2504 VRB05KT 
     PROB40 
     TEMPO 2512/2518 FEW040TCU 
     PROB30 
     TEMPO 2515/2520 26010KT
       
LEMG 242030Z 09005KT CAVOK 24/16 Q1015 NOSIG
TAF LEMG 241700Z 2418/2518 16005KT CAVOK TX28/2515Z TN19/2504Z 
     PROB40 
     TEMPO 2501/2508 30006KT
       
LEMH 242030Z 02005KT 9999 FEW025 21/15 Q1016
TAF LEMH 242000Z 2421/2521 36006KT 9999 FEW020 TX29/2512Z TN19/2505Z 
     TEMPO 2510/2512 23010KT 
     TEMPO 2512/2516 14007KT
       
LEMO 242000Z 23008KT 210V280 CAVOK 23/18 Q1014 NOSIG
TAF LEMO 242000Z 2421/2506 24009KT CAVOK 
     PROB40 
     TEMPO 2500/2506 4000 BR BKN009
       
LEPA 242030Z 23003KT 9999 FEW040 24/20 Q1016 NOSIG
TAF LEPA 241700Z 2418/2518 22010KT 9999 FEW020 TX30/2512Z TN18/2506Z 
     BECMG 2418/2420 VRB03KT 
     BECMG 2508/2510 22010KT
       
LEPP 242030Z 32007KT CAVOK 21/15 Q1018
TAF LEPP 242000Z 2421/2521 34007KT CAVOK TX30/2514Z TN14/2505Z
       
LERI 241800Z 06012KT 020V090 CAVOK 29/16 Q1014 NOSIG
TAF LERI 241400Z 2415/2424 09009KT CAVOK
       
LERS 242030Z VRB01KT 9999 FEW040 23/18 Q1016
TAF LERS 242000Z 2421/2521 VRB03KT 9999 FEW030 TX30/2512Z TN19/2505Z 
     BECMG 2508/2510 15010KT 
     BECMG 2518/2520 VRB03KT
       
LERT 242000Z 20005KT 7000 BKN024 21/18 Q1015 NOSIG
TAF LERT 242000Z 2421/2506 21009KT CAVOK 
     PROB40 
     TEMPO 2421/2506 4000 BR BKN009
       
LESA 241930Z 06004KT 020V080 9999 FEW045 29/14 Q1016
TAF LESA 241700Z 2418/2518 VRB05KT CAVOK TX31/2516Z TN17/2505Z 
     TEMPO 2513/2518 FEW040TCU 
     PROB40 
     TEMPO 2514/2518 SHRA SCT040TCU 
     PROB30 
     TEMPO 2514/2518 VRB15G25KT 3000 TSRA SCT040CB
       
LESO 242030Z AUTO 20004KT 160V230 9999 NCD 21/17 Q1017
TAF LESO 241700Z 2418/2518 VRB04KT CAVOK TX26/2513Z TN18/2504Z 
     PROB40 
     TEMPO 2511/2517 36010KT
       
LEST 242030Z VRB02KT CAVOK 23/20 Q1016 NOSIG
TAF LEST 241700Z 2418/2518 28010KT CAVOK TX27/2514Z TN16/2505Z 
     BECMG 2418/2420 VRB03KT 
     PROB40 
     TEMPO 2502/2506 3000 BR BKN006 
     BECMG 2511/2514 27012KT
       
LESU 241700Z 19011KT 9999 FEW055TCU FEW060 27/15 Q1016
TAF LESU 241400Z 2415/2515 21010KT 9999 FEW040 TX30/2515Z TN12/2505Z 
     BECMG 2417/2420 VRB04KT 
     BECMG 2510/2512 21010KT
       
LETL 242030Z AUTO 05004KT 020V130 9999 NCD 24/04 Q1020
LETO 242000Z 05007KT CAVOK 32/11 Q1015 NOSIG
TAF LETO 241700Z 2418/2518 VRB05KT CAVOK TX36/2516Z TN19/2505Z 
     BECMG 2420/2422 04010KT 
     BECMG 2502/2504 VRB05KT 
     PROB40 
     TEMPO 2512/2518 FEW040TCU 
     PROB30 
     TEMPO 2515/2518 26010KT
       
LEVC 242030Z 14003KT CAVOK 25/19 Q1016 NOSIG
TAF LEVC 241700Z 2418/2518 09010KT 9999 FEW030 TX30/2513Z TN22/2506Z 
     PROB30 
     TEMPO 2418/2420 FEW030CB SCT035 
     BECMG 2418/2420 VRB03KT 
     BECMG 2510/2512 11010KT
       
LEVD 241930Z 07006KT CAVOK 25/16 Q1017
TAF LEVD 241700Z 2418/2518 VRB05KT CAVOK TX29/2516Z TN15/2505Z 
     BECMG 2419/2421 06012KT 
     BECMG 2507/2509 VRB05KT 
     TEMPO 2514/2518 FEW040TCU 
     PROB30 
     TEMPO 2515/2518 3000 TS SHRA SCT040CB
       
LEVS 242030Z 36003KT 320V040 CAVOK 31/12 Q1016
TAF LEVS 241700Z 2418/2503 VRB05KT CAVOK 
     BECMG 2420/2422 04010KT
       
LEVT 242030Z 00000KT CAVOK 19/13 Q1018
TAF LEVT 241700Z 2418/2518 02010KT CAVOK TX29/2515Z TN13/2504Z 
     BECMG 2419/2422 VRB03KT 
     BECMG 2511/2514 03012KT
       
LEVX 242030Z VRB04KT 0300 R19/P2000 R01/0600N FG VV001 18/17 Q1016 TEMPO 1000 BCFG
TAF AMD LEVX 241838Z 2418/2518 28009KT 3000 BR BKN006 TX23/2514Z TN17/2505Z 
     TEMPO 2418/2510 0800 BCFG BKN002 
     TEMPO 2418/2508 0350 FG BKN001 
     PROB40 
     TEMPO 2500/2507 0150 FG VV001 
     PROB30 
     TEMPO 2503/2506 SHRA SCT035TCU 
     BECMG 2510/2512 8000 NSW 
     PROB30 
     TEMPO 2513/2518 FEW040TCU
       
LEXJ 242030Z 05004KT 010V090 CAVOK 21/16 Q1017
TAF LEXJ 242000Z 2421/2521 11007KT CAVOK TX24/2512Z TN15/2504Z 
     BECMG 2509/2511 05012KT 
     TEMPO 2511/2518 05015G26KT
       
LEZG 242030Z 27006KT CAVOK 27/11 Q1014
TAF LEZG 241700Z 2418/2518 30010KT 9999 FEW050 TX36/2514Z TN17/2506Z 
     TEMPO 2418/2421 VRB04KT 
     TEMPO 2507/2516 VRB04KT
       
LEZL 242030Z 23012KT CAVOK 24/18 Q1014 NOSIG
TAF LEZL 242000Z 2421/2521 21009KT CAVOK TX32/2515Z TN20/2505Z 
     PROB40 
     TEMPO 2500/2508 4000 BR BKN009
       
LEMO 242000Z 23008KT 210V280 CAVOK 23/18 Q1014 NOSIG
TAF LEMO 242000Z 2421/2506 24009KT CAVOK 
     PROB40 
     TEMPO 2500/2506 4000 BR BKN009
       
LEPP 242030Z 32007KT CAVOK 21/15 Q1018
TAF LEPP 242000Z 2421/2521 34007KT CAVOK TX30/2514Z TN14/2505Z
       
LERS 242030Z VRB01KT 9999 FEW040 23/18 Q1016
TAF LERS 242000Z 2421/2521 VRB03KT 9999 FEW030 TX30/2512Z TN19/2505Z 
     BECMG 2508/2510 15010KT 
     BECMG 2518/2520 VRB03KT
       
LERT 242000Z 20005KT 7000 BKN024 21/18 Q1015 NOSIG
TAF LERT 242000Z 2421/2506 21009KT CAVOK 
     PROB40 
     TEMPO 2421/2506 4000 BR BKN009
       
LESA 241930Z 06004KT 020V080 9999 FEW045 29/14 Q1016
TAF LESA 241700Z 2418/2518 VRB05KT CAVOK TX31/2516Z TN17/2505Z 
     TEMPO 2513/2518 FEW040TCU 
     PROB40 
     TEMPO 2514/2518 SHRA SCT040TCU 
     PROB30 
     TEMPO 2514/2518 VRB15G25KT 3000 TSRA SCT040CB
       
LESO 242030Z AUTO 20004KT 160V230 9999 NCD 21/17 Q1017
TAF LESO 241700Z 2418/2518 VRB04KT CAVOK TX26/2513Z TN18/2504Z 
     PROB40 
     TEMPO 2511/2517 36010KT
       
LEXJ 242030Z 05004KT 010V090 CAVOK 21/16 Q1017
TAF LEXJ 242000Z 2421/2521 11007KT CAVOK TX24/2512Z TN15/2504Z 
     BECMG 2509/2511 05012KT 
     TEMPO 2511/2518 05015G26KT
       
LEST 242030Z VRB02KT CAVOK 23/20 Q1016 NOSIG
TAF LEST 241700Z 2418/2518 28010KT CAVOK TX27/2514Z TN16/2505Z 
     BECMG 2418/2420 VRB03KT 
     PROB40 
     TEMPO 2502/2506 3000 BR BKN006 
     BECMG 2511/2514 27012KT
       
LESU 241700Z 19011KT 9999 FEW055TCU FEW060 27/15 Q1016
TAF LESU 241400Z 2415/2515 21010KT 9999 FEW040 TX30/2515Z TN12/2505Z 
     BECMG 2417/2420 VRB04KT 
     BECMG 2510/2512 21010KT
       
LEZL 242030Z 23012KT CAVOK 24/18 Q1014 NOSIG
TAF LEZL 242000Z 2421/2521 21009KT CAVOK TX32/2515Z TN20/2505Z 
     PROB40 
     TEMPO 2500/2508 4000 BR BKN009
       
LEBZ 241900Z 24009KT CAVOK 34/15 Q1012
TAF LEBZ 241700Z 2418/2518 25009KT CAVOK TX33/2418Z TN20/2505Z
       
GCXO 242030Z 30013KT CAVOK 17/15 Q1020 NOSIG
TAF GCXO 242000Z 2421/2521 31008KT 9999 SCT012 TX23/2514Z TN14/2505Z
       
GCTS 242030Z 10007KT 070V130 9999 FEW024 BKN028 21/17 Q1018 NOSIG
TAF GCTS 242000Z 2421/2521 06007KT 9999 SCT025 TX25/2514Z TN19/2505Z 
     PROB30 
     TEMPO 2509/2521 08015G25KT
       
LETO 242000Z 05007KT CAVOK 32/11 Q1015 NOSIG
TAF LETO 241700Z 2418/2518 VRB05KT CAVOK TX36/2516Z TN19/2505Z 
     BECMG 2420/2422 04010KT 
     BECMG 2502/2504 VRB05KT 
     PROB40 
     TEMPO 2512/2518 FEW040TCU 
     PROB30 
     TEMPO 2515/2518 26010KT
       
LEVC 242030Z 14003KT CAVOK 25/19 Q1016 NOSIG
TAF LEVC 241700Z 2418/2518 09010KT 9999 FEW030 TX30/2513Z TN22/2506Z 
     PROB30 
     TEMPO 2418/2420 FEW030CB SCT035 
     BECMG 2418/2420 VRB03KT 
     BECMG 2510/2512 11010KT
       
LEVD 241930Z 07006KT CAVOK 25/16 Q1017
TAF LEVD 241700Z 2418/2518 VRB05KT CAVOK TX29/2516Z TN15/2505Z 
     BECMG 2419/2421 06012KT 
     BECMG 2507/2509 VRB05KT 
     TEMPO 2514/2518 FEW040TCU 
     PROB30 
     TEMPO 2515/2518 3000 TS SHRA SCT040CB
       
LEVX 242030Z VRB04KT 0300 R19/P2000 R01/0600N FG VV001 18/17 Q1016 TEMPO 1000 BCFG
TAF AMD LEVX 241838Z 2418/2518 28009KT 3000 BR BKN006 TX23/2514Z TN17/2505Z 
     TEMPO 2418/2510 0800 BCFG BKN002 
     TEMPO 2418/2508 0350 FG BKN001 
     PROB40 
     TEMPO 2500/2507 0150 FG VV001 
     PROB30 
     TEMPO 2503/2506 SHRA SCT035TCU 
     BECMG 2510/2512 8000 NSW 
     PROB30 
     TEMPO 2513/2518 FEW040TCU
       
LEVT 242030Z 00000KT CAVOK 19/13 Q1018
TAF LEVT 241700Z 2418/2518 02010KT CAVOK TX29/2515Z TN13/2504Z 
     BECMG 2419/2422 VRB03KT 
     BECMG 2511/2514 03012KT
       
LEZG 242030Z 27006KT CAVOK 27/11 Q1014
TAF LEZG 241700Z 2418/2518 30010KT 9999 FEW050 TX36/2514Z TN17/2506Z 
     TEMPO 2418/2421 VRB04KT 
     TEMPO 2507/2516 VRB04KT